HAZ2814 ZWWW-ZUUU

Flight info

Callsign HAZ2814
Flight time 3h 0m
Altitude 35100
Route VARMI4L VARMI W190 ADPET W188 DAKPA W189 AKLAS W192 ESDEX W191 DNC W565 BIGUX B330 MEXAD MEXAD2E
Aircraft A321/M-SDE3FGHIRWY/LB1

Departure

Time 2026-04-25 11:09
Airport Ürümqi Tianshan International Airport (ZWWW)

Arrival

Time 2026-04-25 14:10
Airport Chengdu Shuangliu International Airport (ZUUU)
Time Latitude Longitude Altitude Speed Heading
2026-04-25 09:47 43.90294 87.47521 2135 ft 0 kts 163°
2026-04-25 11:01 43.90300 87.47519 2132 ft 4 kts 163°
2026-04-25 11:01 43.90326 87.47508 2132 ft 4 kts 163°
2026-04-25 11:01 43.90352 87.47499 2134 ft 4 kts 180°
2026-04-25 11:02 43.90369 87.47507 2134 ft 3 kts 252°
2026-04-25 11:02 43.90375 87.47536 2134 ft 4 kts 253°
2026-04-25 11:02 43.90377 87.47543 2134 ft 0 kts 253°
2026-04-25 11:05 43.90367 87.47493 2134 ft 8 kts 254°
2026-04-25 11:05 43.90353 87.47426 2134 ft 6 kts 254°
2026-04-25 11:05 43.90338 87.47356 2135 ft 11 kts 254°
2026-04-25 11:05 43.90312 87.47230 2135 ft 15 kts 253°
2026-04-25 11:06 43.90288 87.47100 2135 ft 13 kts 272°
2026-04-25 11:06 43.90358 87.47037 2134 ft 14 kts 342°
2026-04-25 11:06 43.90433 87.46961 2132 ft 14 kts 274°
2026-04-25 11:06 43.90409 87.46822 2133 ft 18 kts 253°
2026-04-25 11:07 43.90373 87.46655 2133 ft 17 kts 253°
2026-04-25 11:07 43.90336 87.46481 2132 ft 21 kts 253°
2026-04-25 11:07 43.90289 87.46262 2132 ft 24 kts 253°
2026-04-25 11:07 43.90243 87.46043 2132 ft 22 kts 254°
2026-04-25 11:08 43.90214 87.45881 2131 ft 15 kts 273°
2026-04-25 11:08 43.90299 87.45809 2126 ft 18 kts 342°
2026-04-25 11:08 43.90379 87.45848 2120 ft 12 kts 69°
2026-04-25 11:08 43.90409 87.45989 2121 ft 23 kts 74°
2026-04-25 11:09 43.90521 87.46511 2124 ft 89 kts 74°
2026-04-25 11:09 43.90749 87.47583 2122 ft 141 kts 74°
2026-04-25 11:09 43.91058 87.49102 2145 ft 186 kts 71°
2026-04-25 11:09 43.91413 87.50886 2813 ft 190 kts 71°
2026-04-25 11:10 43.91799 87.52597 3672 ft 181 kts 58°
2026-04-25 11:10 43.92020 87.53101 3907 ft 181 kts 52°
2026-04-25 11:10 43.93270 87.55407 4648 ft 183 kts 50°
2026-04-25 11:10 43.94038 87.56803 5063 ft 182 kts 49°
2026-04-25 11:11 43.94818 87.58211 5318 ft 192 kts 50°
2026-04-25 11:11 43.95774 87.59588 5440 ft 205 kts 34°
2026-04-25 11:11 43.97117 87.60400 5531 ft 222 kts
2026-04-25 11:11 43.98728 87.60231 5704 ft 241 kts 351°
2026-04-25 11:12 44.00402 87.59897 6355 ft 243 kts 351°
2026-04-25 11:12 44.02096 87.59574 6975 ft 248 kts 351°
2026-04-25 11:12 44.03814 87.59249 7623 ft 250 kts 351°
2026-04-25 11:12 44.05545 87.58924 8307 ft 251 kts 350°
2026-04-25 11:13 44.07280 87.58601 9023 ft 251 kts 349°
2026-04-25 11:13 44.09013 87.58280 9738 ft 252 kts 348°
2026-04-25 11:13 44.10756 87.57984 10389 ft 254 kts 353°
2026-04-25 11:13 44.11935 87.58054 10770 ft 260 kts
2026-04-25 11:14 44.14372 87.59033 11020 ft 292 kts 14°
2026-04-25 11:14 44.15697 87.59682 11102 ft 306 kts 15°
2026-04-25 11:14 44.17773 87.60699 11229 ft 327 kts 15°
2026-04-25 11:14 44.20730 87.62151 11388 ft 353 kts 15°
2026-04-25 11:15 44.23099 87.63324 11512 ft 371 kts 16°
2026-04-25 11:15 44.24765 87.64152 11656 ft 380 kts 16°
2026-04-25 11:15 44.27278 87.65400 12126 ft 385 kts 16°
2026-04-25 11:15 44.29820 87.66661 12655 ft 389 kts 16°
2026-04-25 11:16 44.34705 87.70100 13682 ft 405 kts 36°
2026-04-25 11:16 44.36809 87.72739 14175 ft 410 kts 39°
2026-04-25 11:16 44.38931 87.75442 14648 ft 412 kts 39°
2026-04-25 11:17 44.41059 87.78148 15116 ft 415 kts 39°
2026-04-25 11:17 44.43171 87.80828 15568 ft 418 kts 39°
2026-04-25 11:17 44.45362 87.83609 16036 ft 420 kts 39°
2026-04-25 11:17 44.47525 87.86359 16485 ft 423 kts 39°
2026-04-25 11:18 44.49721 87.89158 16934 ft 426 kts 39°
2026-04-25 11:18 44.51910 87.91963 17380 ft 429 kts 40°
2026-04-25 11:18 44.53842 87.95127 17792 ft 437 kts 52°
2026-04-25 11:18 44.55337 87.98919 18235 ft 444 kts 65°
2026-04-25 11:19 44.56266 88.03093 18637 ft 450 kts 77°
2026-04-25 11:19 44.56580 88.07472 18989 ft 456 kts 89°
2026-04-25 11:19 44.56300 88.11929 19350 ft 460 kts 97°
2026-04-25 11:19 44.55890 88.16383 19716 ft 462 kts 97°
2026-04-25 11:20 44.55482 88.20799 20073 ft 465 kts 97°
2026-04-25 11:20 44.55064 88.25380 20439 ft 468 kts 97°
2026-04-25 11:20 44.54661 88.29861 20790 ft 471 kts 96°
2026-04-25 11:20 44.54250 88.34488 21141 ft 474 kts 96°
2026-04-25 11:21 44.53841 88.39090 21485 ft 477 kts 97°
2026-04-25 11:21 44.53432 88.43643 21821 ft 479 kts 97°
2026-04-25 11:21 44.53005 88.48350 22152 ft 482 kts 97°
2026-04-25 11:21 44.52580 88.53021 22497 ft 485 kts 97°
2026-04-25 11:22 44.52168 88.57659 22825 ft 487 kts 97°
2026-04-25 11:22 44.51886 88.60856 23048 ft 489 kts 97°
2026-04-25 11:22 44.51337 88.67137 23472 ft 493 kts 97°
2026-04-25 11:22 44.50918 88.71928 23773 ft 496 kts 97°
2026-04-25 11:23 44.50496 88.76729 24017 ft 499 kts 97°
2026-04-25 11:23 44.50068 88.81563 24241 ft 502 kts 97°
2026-04-25 11:23 44.49635 88.86422 24472 ft 505 kts 97°
2026-04-25 11:23 44.49193 88.91321 24683 ft 508 kts 97°
2026-04-25 11:24 44.48744 88.96237 24896 ft 511 kts 97°
2026-04-25 11:24 44.48284 89.01191 25124 ft 515 kts 98°
2026-04-25 11:24 44.47819 89.06183 25349 ft 518 kts 98°
2026-04-25 11:24 44.47352 89.11199 25567 ft 521 kts 98°
2026-04-25 11:25 44.46884 89.16236 25796 ft 524 kts 98°
2026-04-25 11:25 44.46410 89.21311 26010 ft 527 kts 98°
2026-04-25 11:25 44.45930 89.26392 26291 ft 527 kts 98°
2026-04-25 11:25 44.45441 89.31488 26582 ft 528 kts 98°
2026-04-25 11:26 44.44949 89.36588 26862 ft 530 kts 99°
2026-04-25 11:26 44.44453 89.41697 27138 ft 531 kts 99°
2026-04-25 11:26 44.43952 89.46827 27418 ft 532 kts 99°
2026-04-25 11:26 44.43451 89.51958 27695 ft 533 kts 99°
2026-04-25 11:27 44.42947 89.57103 27969 ft 534 kts 99°
2026-04-25 11:27 44.42439 89.62257 28244 ft 536 kts 99°
2026-04-25 11:27 44.41914 89.67424 28494 ft 536 kts 102°
2026-04-25 11:27 44.41404 89.70781 28742 ft 532 kts 108°
2026-04-25 11:28 44.40004 89.77404 29201 ft 530 kts 110°
2026-04-25 11:28 44.38935 89.82337 29490 ft 530 kts 110°
2026-04-25 11:28 44.37864 89.87270 29788 ft 531 kts 111°
2026-04-25 11:28 44.36789 89.92208 30074 ft 531 kts 111°
2026-04-25 11:29 44.35714 89.97146 30327 ft 532 kts 111°
2026-04-25 11:29 44.34636 90.02092 30549 ft 533 kts 110°
2026-04-25 11:29 44.33555 90.07045 30767 ft 534 kts 110°
2026-04-25 11:29 44.32469 90.12002 31004 ft 534 kts 111°
2026-04-25 11:30 44.31376 90.16959 31248 ft 534 kts 111°
2026-04-25 11:30 44.30281 90.21914 31504 ft 535 kts 111°
2026-04-25 11:30 44.29185 90.26871 31752 ft 535 kts 110°
2026-04-25 11:30 44.28088 90.31838 31997 ft 535 kts 110°
2026-04-25 11:31 44.26990 90.36807 32245 ft 536 kts 110°
2026-04-25 11:31 44.25892 90.41762 32474 ft 536 kts 110°
2026-04-25 11:31 44.24784 90.46742 32706 ft 537 kts 110°
2026-04-25 11:31 44.23676 90.51719 32943 ft 538 kts 110°
2026-04-25 11:32 44.22562 90.56698 33186 ft 538 kts 110°
2026-04-25 11:32 44.21443 90.61677 33425 ft 538 kts 110°
2026-04-25 11:32 44.20322 90.66643 33706 ft 537 kts 110°
2026-04-25 11:32 44.19201 90.71609 33956 ft 537 kts 110°
2026-04-25 11:33 44.18092 90.76507 34186 ft 537 kts 110°
2026-04-25 11:33 44.16967 90.81456 34445 ft 535 kts 110°
2026-04-25 11:33 44.15847 90.86388 34724 ft 533 kts 110°
2026-04-25 11:33 44.14726 90.91308 35000 ft 531 kts 110°
2026-04-25 11:34 44.13610 90.96199 35173 ft 530 kts 110°
2026-04-25 11:34 44.12494 91.01086 35215 ft 529 kts 110°
2026-04-25 11:34 44.10259 91.10833 35214 ft 528 kts 110°
2026-04-25 11:35 44.08021 91.20559 35213 ft 528 kts 110°
2026-04-25 11:35 44.05433 91.30053 35221 ft 521 kts 124°
2026-04-25 11:36 44.03434 91.34203 35219 ft 513 kts 136°
2026-04-25 11:36 44.00988 91.37741 35195 ft 503 kts 147°
2026-04-25 11:36 43.98219 91.40600 35206 ft 491 kts 157°
2026-04-25 11:36 43.95224 91.42729 35220 ft 478 kts 167°
2026-04-25 11:37 43.92103 91.44111 35217 ft 465 kts 177°
2026-04-25 11:37 43.88948 91.44824 35210 ft 457 kts 182°
2026-04-25 11:37 43.82644 91.45955 35216 ft 457 kts 182°
2026-04-25 11:38 43.76341 91.47095 35203 ft 456 kts 182°
2026-04-25 11:38 43.70049 91.48234 35202 ft 456 kts 182°
2026-04-25 11:39 43.63763 91.49375 35194 ft 456 kts 182°
2026-04-25 11:39 43.57477 91.50501 35169 ft 455 kts 182°
2026-04-25 11:40 43.51199 91.51633 35180 ft 454 kts 182°
2026-04-25 11:40 43.44932 91.52767 35164 ft 454 kts 182°
2026-04-25 11:41 43.38671 91.53900 35115 ft 454 kts 182°
2026-04-25 11:41 43.32414 91.55035 35097 ft 454 kts 182°
2026-04-25 11:42 43.26160 91.56164 35101 ft 453 kts 182°
2026-04-25 11:42 43.19901 91.57288 35084 ft 454 kts 182°
2026-04-25 11:43 43.13646 91.58416 35065 ft 453 kts 182°
2026-04-25 11:43 43.07388 91.59537 35065 ft 454 kts 182°
2026-04-25 11:44 43.01132 91.60656 35034 ft 454 kts 182°
2026-04-25 11:44 42.94864 91.61771 35035 ft 454 kts 182°
2026-04-25 11:45 42.88591 91.62889 35032 ft 455 kts 182°
2026-04-25 11:45 42.82311 91.64006 35033 ft 455 kts 182°
2026-04-25 11:46 42.76027 91.65125 35020 ft 456 kts 182°
2026-04-25 11:46 42.69740 91.66244 35032 ft 456 kts 182°
2026-04-25 11:47 42.63455 91.67362 35037 ft 456 kts 182°
2026-04-25 11:47 42.57173 91.68467 35028 ft 455 kts 182°
2026-04-25 11:48 42.50899 91.69568 35053 ft 454 kts 182°
2026-04-25 11:48 42.44635 91.70692 35057 ft 454 kts 182°
2026-04-25 11:49 42.38376 91.71829 35039 ft 453 kts 182°
2026-04-25 11:49 42.32127 91.72953 35061 ft 453 kts 182°
2026-04-25 11:50 42.25884 91.74067 35069 ft 452 kts 182°
2026-04-25 11:50 42.19642 91.75177 35071 ft 452 kts 182°
2026-04-25 11:51 42.13449 91.76292 35063 ft 452 kts 181°
2026-04-25 11:51 42.07221 91.77405 35066 ft 451 kts 181°
2026-04-25 11:52 42.01004 91.78508 35065 ft 451 kts 181°
2026-04-25 11:52 41.94790 91.79610 35040 ft 450 kts 181°
2026-04-25 11:53 41.88579 91.80697 35045 ft 450 kts 181°
2026-04-25 11:53 41.82367 91.81788 35041 ft 450 kts 181°
2026-04-25 11:54 41.76160 91.82883 35049 ft 450 kts 181°
2026-04-25 11:55 41.66873 91.85165 35012 ft 465 kts 166°
2026-04-25 11:55 41.63945 91.87110 35016 ft 477 kts 154°
2026-04-25 11:55 41.61292 91.89857 35015 ft 488 kts 142°
2026-04-25 11:55 41.59057 91.93307 35005 ft 499 kts 129°
2026-04-25 11:56 41.57171 91.97222 34992 ft 502 kts 127°
2026-04-25 11:56 41.53404 92.05088 34972 ft 503 kts 127°
2026-04-25 11:57 41.49602 92.12934 34978 ft 503 kts 128°
2026-04-25 11:57 41.45794 92.20750 34990 ft 503 kts 128°
2026-04-25 11:58 41.41995 92.28585 35001 ft 503 kts 127°
2026-04-25 11:58 41.38201 92.36419 34977 ft 504 kts 128°
2026-04-25 11:59 41.34387 92.44245 34977 ft 504 kts 128°
2026-04-25 11:59 41.31206 92.50753 34959 ft 504 kts 128°
2026-04-25 12:00 41.25474 92.62443 34995 ft 502 kts 128°
2026-04-25 12:01 41.19748 92.74100 34980 ft 502 kts 128°
2026-04-25 12:01 41.15924 92.81853 34975 ft 502 kts 128°
2026-04-25 12:02 41.10166 92.93466 34957 ft 502 kts 128°
2026-04-25 12:02 41.06321 93.01201 34959 ft 503 kts 128°
2026-04-25 12:03 41.02480 93.08943 34946 ft 503 kts 128°
2026-04-25 12:03 40.98621 93.16677 34944 ft 504 kts 128°
2026-04-25 12:04 40.94751 93.24404 34946 ft 504 kts 128°
2026-04-25 12:04 40.90876 93.32124 34945 ft 504 kts 128°
2026-04-25 12:05 40.86993 93.39841 34949 ft 504 kts 128°
2026-04-25 12:05 40.83104 93.47535 34940 ft 503 kts 128°
2026-04-25 12:06 40.79217 93.55209 34950 ft 503 kts 128°
2026-04-25 12:06 40.75319 93.62857 34933 ft 501 kts 129°
2026-04-25 12:07 40.71132 93.70170 34936 ft 498 kts 134°
2026-04-25 12:07 40.66727 93.77205 34920 ft 497 kts 135°
2026-04-25 12:08 40.62335 93.84241 34895 ft 498 kts 133°
2026-04-25 12:08 40.58014 93.91381 34878 ft 499 kts 133°
2026-04-25 12:09 40.53731 93.98507 34876 ft 500 kts 133°
2026-04-25 12:09 40.49368 94.05707 34881 ft 501 kts 133°
2026-04-25 12:10 40.45033 94.12797 34876 ft 501 kts 133°
2026-04-25 12:10 40.40665 94.19928 34876 ft 501 kts 133°
2026-04-25 12:11 40.36304 94.27049 34868 ft 501 kts 133°
2026-04-25 12:11 40.31937 94.34162 34878 ft 500 kts 133°
2026-04-25 12:12 40.28279 94.40110 34882 ft 500 kts 133°
2026-04-25 12:12 40.23201 94.48341 34885 ft 500 kts 133°
2026-04-25 12:13 40.18822 94.55411 34894 ft 500 kts 133°
2026-04-25 12:13 40.14446 94.62471 34877 ft 500 kts 133°
2026-04-25 12:14 40.10214 94.69692 34891 ft 504 kts 124°
2026-04-25 12:14 40.07020 94.77883 34906 ft 507 kts 118°
2026-04-25 12:15 40.03922 94.86150 34909 ft 507 kts 119°
2026-04-25 12:15 40.00807 94.94405 34935 ft 507 kts 119°
2026-04-25 12:16 39.97682 95.02650 34934 ft 508 kts 119°
2026-04-25 12:16 39.94547 95.10903 34948 ft 508 kts 119°
2026-04-25 12:17 39.91413 95.19171 34978 ft 509 kts 118°
2026-04-25 12:17 39.88286 95.27435 34997 ft 509 kts 118°
2026-04-25 12:18 39.85161 95.35691 35028 ft 509 kts 118°
2026-04-25 12:18 39.82017 95.43938 35026 ft 509 kts 118°
2026-04-25 12:19 39.77274 95.56290 35066 ft 509 kts 118°
2026-04-25 12:20 39.74114 95.64528 35073 ft 509 kts 118°
2026-04-25 12:20 39.70949 95.72755 35109 ft 509 kts 118°
2026-04-25 12:21 39.67774 95.80971 35113 ft 509 kts 118°
2026-04-25 12:21 39.64602 95.89183 35098 ft 509 kts 118°
2026-04-25 12:22 39.61424 95.97374 35130 ft 508 kts 118°
2026-04-25 12:22 39.58235 96.05536 35148 ft 507 kts 118°
2026-04-25 12:23 39.55045 96.13680 35159 ft 507 kts 118°
2026-04-25 12:23 39.51838 96.21827 35142 ft 508 kts 118°
2026-04-25 12:24 39.48627 96.29968 35164 ft 508 kts 119°
2026-04-25 12:24 39.45405 96.38111 35163 ft 508 kts 119°
2026-04-25 12:25 39.42174 96.46242 35172 ft 508 kts 119°
2026-04-25 12:25 39.38933 96.54372 35177 ft 508 kts 118°
2026-04-25 12:26 39.35696 96.62485 35179 ft 508 kts 118°
2026-04-25 12:26 39.32456 96.70581 35171 ft 507 kts 118°
2026-04-25 12:27 39.29212 96.78648 35161 ft 506 kts 119°
2026-04-25 12:27 39.25956 96.86710 35147 ft 507 kts 118°
2026-04-25 12:28 39.22739 96.94802 35157 ft 507 kts 118°
2026-04-25 12:28 39.19562 97.02892 35162 ft 505 kts 118°
2026-04-25 12:29 39.16377 97.10966 35159 ft 505 kts 118°
2026-04-25 12:29 39.13172 97.19015 35164 ft 505 kts 118°
2026-04-25 12:30 39.09961 97.27038 35162 ft 503 kts 118°
2026-04-25 12:30 39.06754 97.35041 35172 ft 503 kts 118°
2026-04-25 12:31 39.03551 97.43025 35175 ft 502 kts 118°
2026-04-25 12:31 39.00343 97.50995 35176 ft 502 kts 119°
2026-04-25 12:32 38.97132 97.58957 35180 ft 501 kts 119°
2026-04-25 12:32 38.93936 97.66852 35161 ft 502 kts 119°
2026-04-25 12:33 38.90710 97.74811 35145 ft 502 kts 119°
2026-04-25 12:33 38.87472 97.82753 35149 ft 503 kts 119°
2026-04-25 12:34 38.84226 97.90696 35126 ft 502 kts 119°
2026-04-25 12:34 38.80978 97.98621 35158 ft 502 kts 119°
2026-04-25 12:35 38.77728 98.06537 35139 ft 502 kts 119°
2026-04-25 12:35 38.74468 98.14454 35132 ft 502 kts 119°
2026-04-25 12:36 38.71205 98.22367 35119 ft 503 kts 119°
2026-04-25 12:36 38.67937 98.30280 35120 ft 503 kts 119°
2026-04-25 12:37 38.64660 98.38181 35125 ft 503 kts 119°
2026-04-25 12:37 38.61365 98.46098 35113 ft 505 kts 119°
2026-04-25 12:38 38.58062 98.54018 35099 ft 505 kts 119°
2026-04-25 12:38 38.54757 98.61938 35110 ft 505 kts 119°
2026-04-25 12:39 38.51438 98.69858 35109 ft 506 kts 119°
2026-04-25 12:39 38.48123 98.77787 35105 ft 507 kts 119°
2026-04-25 12:40 38.44796 98.85715 35107 ft 508 kts 119°
2026-04-25 12:40 38.41443 98.93647 35108 ft 508 kts 119°
2026-04-25 12:41 38.38076 99.01581 35115 ft 509 kts 119°
2026-04-25 12:41 38.34708 99.09510 35127 ft 509 kts 118°
2026-04-25 12:42 38.31340 99.17453 35125 ft 510 kts 119°
2026-04-25 12:42 38.27968 99.25378 35131 ft 509 kts 119°
2026-04-25 12:43 38.24593 99.33275 35147 ft 508 kts 119°
2026-04-25 12:43 38.20088 99.43757 35155 ft 507 kts 120°
2026-04-25 12:44 38.16705 99.51617 35159 ft 507 kts 119°
2026-04-25 12:45 38.11631 99.63412 35153 ft 507 kts 119°
2026-04-25 12:45 38.06530 99.75193 35154 ft 508 kts 119°
2026-04-25 12:46 38.03120 99.83044 35156 ft 508 kts 119°
2026-04-25 12:46 37.99712 99.90892 35138 ft 508 kts 119°
2026-04-25 12:47 37.96283 99.98735 35149 ft 509 kts 119°
2026-04-25 12:47 37.92850 100.06571 35147 ft 508 kts 119°
2026-04-25 12:48 37.89422 100.14402 35152 ft 508 kts 119°
2026-04-25 12:48 37.85989 100.22226 35169 ft 509 kts 119°
2026-04-25 12:49 37.82539 100.30049 35153 ft 510 kts 120°
2026-04-25 12:49 37.79067 100.37890 35150 ft 511 kts 119°
2026-04-25 12:50 37.75597 100.45730 35155 ft 511 kts 120°
2026-04-25 12:50 37.72122 100.53574 35157 ft 512 kts 120°
2026-04-25 12:51 37.68639 100.61416 35149 ft 512 kts 120°
2026-04-25 12:51 37.65141 100.69257 35164 ft 513 kts 120°
2026-04-25 12:52 37.61758 100.77176 35174 ft 513 kts 118°
2026-04-25 12:52 37.58461 100.85155 35157 ft 513 kts 118°
2026-04-25 12:53 37.55167 100.93051 35162 ft 512 kts 118°
2026-04-25 12:53 37.51795 101.01025 35155 ft 512 kts 118°
2026-04-25 12:54 37.48452 101.08874 35150 ft 512 kts 119°
2026-04-25 12:54 37.45080 101.16764 35123 ft 512 kts 119°
2026-04-25 12:55 37.42254 101.23371 35136 ft 512 kts 119°
2026-04-25 12:55 37.38335 101.32546 35137 ft 513 kts 119°
2026-04-25 12:56 37.34953 101.40448 35097 ft 514 kts 119°
2026-04-25 12:56 37.31549 101.48361 35100 ft 515 kts 120°
2026-04-25 12:57 37.28808 101.56649 35099 ft 515 kts 105°
2026-04-25 12:57 37.26846 101.65315 35116 ft 517 kts 105°
2026-04-25 12:58 37.24859 101.73995 35126 ft 517 kts 105°
2026-04-25 12:58 37.22865 101.82666 35139 ft 517 kts 105°
2026-04-25 12:59 37.20863 101.91344 35133 ft 518 kts 105°
2026-04-25 12:59 37.18851 102.00028 35135 ft 518 kts 105°
2026-04-25 13:00 37.17170 102.07242 35166 ft 519 kts 105°
2026-04-25 13:00 37.14802 102.17389 35164 ft 519 kts 105°
2026-04-25 13:01 37.12772 102.26077 35179 ft 519 kts 105°
2026-04-25 13:01 37.10055 102.34431 35210 ft 518 kts 122°
2026-04-25 13:02 37.06244 102.42089 35217 ft 518 kts 123°
2026-04-25 13:02 37.02420 102.49746 35190 ft 519 kts 124°
2026-04-25 13:03 36.98596 102.57408 35201 ft 519 kts 124°
2026-04-25 13:03 36.94787 102.65017 35231 ft 520 kts 124°
2026-04-25 13:04 36.90944 102.72671 35208 ft 520 kts 124°
2026-04-25 13:04 36.87100 102.80314 35221 ft 519 kts 124°
2026-04-25 13:05 36.83223 102.87982 35226 ft 518 kts 124°
2026-04-25 13:05 36.79792 102.95891 35195 ft 519 kts 116°
2026-04-25 13:06 36.76669 103.04001 35190 ft 519 kts 117°
2026-04-25 13:06 36.73528 103.12093 35140 ft 518 kts 117°
2026-04-25 13:07 36.70390 103.20143 35159 ft 520 kts 117°
2026-04-25 13:07 36.67222 103.28256 35130 ft 521 kts 117°
2026-04-25 13:08 36.64052 103.36373 35136 ft 521 kts 117°
2026-04-25 13:08 36.60884 103.44488 35140 ft 521 kts 117°
2026-04-25 13:09 36.57706 103.52599 35172 ft 521 kts 117°
2026-04-25 13:09 36.54497 103.60741 35181 ft 520 kts 117°
2026-04-25 13:10 36.51131 103.68624 35160 ft 519 kts 121°
2026-04-25 13:10 36.47432 103.76322 35153 ft 519 kts 123°
2026-04-25 13:11 36.43685 103.83981 35134 ft 519 kts 122°
2026-04-25 13:11 36.40024 103.91704 35106 ft 520 kts 121°
2026-04-25 13:12 36.36405 103.99481 35065 ft 521 kts 120°
2026-04-25 13:12 36.33349 104.06009 35058 ft 522 kts 121°
2026-04-25 13:13 36.29075 104.15051 35047 ft 523 kts 121°
2026-04-25 13:13 36.25355 104.22807 35052 ft 523 kts 124°
2026-04-25 13:14 36.23127 104.26352 35053 ft 520 kts 135°
2026-04-25 13:14 36.20483 104.29377 35054 ft 515 kts 146°
2026-04-25 13:14 36.17506 104.31784 35056 ft 509 kts 157°
2026-04-25 13:14 36.14294 104.33504 35051 ft 500 kts 168°
2026-04-25 13:15 36.10941 104.34523 35027 ft 491 kts 179°
2026-04-25 13:15 36.07569 104.34863 35030 ft 483 kts 187°
2026-04-25 13:15 36.00842 104.34956 35032 ft 484 kts 187°
2026-04-25 13:16 35.94094 104.35074 35036 ft 485 kts 186°
2026-04-25 13:16 35.87292 104.35196 34994 ft 485 kts 187°
2026-04-25 13:17 35.80538 104.35308 35043 ft 485 kts 187°
2026-04-25 13:17 35.73828 104.35409 35045 ft 486 kts 187°
2026-04-25 13:18 35.67069 104.35521 35038 ft 485 kts 187°
2026-04-25 13:18 35.60313 104.35628 35044 ft 486 kts 187°
2026-04-25 13:19 35.53560 104.35738 35042 ft 485 kts 187°
2026-04-25 13:19 35.49043 104.35807 35042 ft 485 kts 187°
2026-04-25 13:20 35.40056 104.35943 35043 ft 485 kts 187°
2026-04-25 13:20 35.33305 104.36055 35013 ft 485 kts 187°
2026-04-25 13:21 35.26557 104.36168 35016 ft 485 kts 187°
2026-04-25 13:21 35.19807 104.36270 35019 ft 485 kts 187°
2026-04-25 13:22 35.13063 104.36373 35003 ft 484 kts 187°
2026-04-25 13:23 35.02964 104.36540 35020 ft 484 kts 187°
2026-04-25 13:23 34.96240 104.36649 35016 ft 483 kts 187°
2026-04-25 13:24 34.89518 104.36755 35004 ft 483 kts 187°
2026-04-25 13:24 34.82800 104.36859 34993 ft 483 kts 187°
2026-04-25 13:25 34.76088 104.36965 35008 ft 482 kts 187°
2026-04-25 13:25 34.69380 104.37050 35013 ft 482 kts 187°
2026-04-25 13:26 34.62668 104.37151 35010 ft 483 kts 187°
2026-04-25 13:26 34.57037 104.37239 35015 ft 483 kts 187°
2026-04-25 13:27 34.50316 104.37343 35016 ft 483 kts 187°
2026-04-25 13:27 34.43595 104.37452 35019 ft 483 kts 187°
2026-04-25 13:28 34.36863 104.37559 35015 ft 484 kts 186°
2026-04-25 13:28 34.30127 104.37654 35018 ft 484 kts 186°
2026-04-25 13:29 34.23386 104.37759 35013 ft 485 kts 186°
2026-04-25 13:29 34.16644 104.37871 35003 ft 484 kts 186°
2026-04-25 13:30 34.06524 104.38032 34979 ft 485 kts 186°
2026-04-25 13:31 33.96390 104.38186 34970 ft 486 kts 186°
2026-04-25 13:31 33.89627 104.38291 34969 ft 486 kts 186°
2026-04-25 13:32 33.82850 104.38393 34968 ft 487 kts 185°
2026-04-25 13:32 33.76068 104.38499 34977 ft 487 kts 185°
2026-04-25 13:33 33.69288 104.38605 34991 ft 487 kts 185°
2026-04-25 13:33 33.62510 104.39125 34979 ft 494 kts 173°
2026-04-25 13:34 33.55977 104.41904 35005 ft 505 kts 154°
2026-04-25 13:34 33.49946 104.46229 35008 ft 506 kts 152°
2026-04-25 13:35 33.43910 104.50554 35006 ft 505 kts 152°
2026-04-25 13:35 33.37585 104.54040 35005 ft 497 kts 168°
2026-04-25 13:36 33.30870 104.55343 34995 ft 484 kts 183°
2026-04-25 13:36 33.24150 104.55762 35020 ft 484 kts 182°
2026-04-25 13:37 33.17434 104.56198 35018 ft 483 kts 183°
2026-04-25 13:37 33.10722 104.56633 35031 ft 483 kts 182°
2026-04-25 13:38 33.04009 104.57066 35034 ft 483 kts 182°
2026-04-25 13:38 32.97291 104.57490 35046 ft 484 kts 182°
2026-04-25 13:39 32.90580 104.57914 35043 ft 482 kts 182°
2026-04-25 13:39 32.83876 104.58341 35047 ft 483 kts 182°
2026-04-25 13:40 32.77171 104.58764 35055 ft 481 kts 182°
2026-04-25 13:40 32.70533 104.59130 35065 ft 480 kts 183°
2026-04-25 13:41 32.63862 104.59397 35073 ft 480 kts 184°
2026-04-25 13:41 32.57184 104.59659 35080 ft 480 kts 183°
2026-04-25 13:42 32.50512 104.59969 35084 ft 479 kts 183°
2026-04-25 13:42 32.43859 104.60286 35091 ft 478 kts 183°
2026-04-25 13:43 32.37212 104.60601 35088 ft 478 kts 183°
2026-04-25 13:43 32.30564 104.60959 35091 ft 478 kts 182°
2026-04-25 13:44 32.23923 104.61339 35068 ft 477 kts 182°
2026-04-25 13:44 32.17289 104.61710 35059 ft 477 kts 182°
2026-04-25 13:45 32.10658 104.62074 35068 ft 477 kts 182°
2026-04-25 13:45 32.04021 104.62439 35060 ft 477 kts 182°
2026-04-25 13:46 31.97388 104.62793 35051 ft 477 kts 183°
2026-04-25 13:46 31.90761 104.63155 35053 ft 477 kts 182°
2026-04-25 13:47 31.84134 104.63514 34749 ft 478 kts 182°
2026-04-25 13:47 31.80808 104.63695 34163 ft 477 kts 182°
2026-04-25 13:47 31.77491 104.63878 33534 ft 478 kts 182°
2026-04-25 13:47 31.74161 104.64068 32860 ft 480 kts 181°
2026-04-25 13:48 31.70814 104.64270 32221 ft 483 kts 181°
2026-04-25 13:48 31.67445 104.64484 31597 ft 486 kts 180°
2026-04-25 13:48 31.64061 104.64704 30970 ft 489 kts 180°
2026-04-25 13:48 31.60655 104.64926 30372 ft 491 kts 180°
2026-04-25 13:49 31.57231 104.65144 29759 ft 494 kts 179°
2026-04-25 13:49 31.53793 104.65355 29075 ft 496 kts 179°
2026-04-25 13:49 31.50345 104.65568 28410 ft 497 kts 179°
2026-04-25 13:49 31.46898 104.65589 27744 ft 493 kts 188°
2026-04-25 13:50 31.43558 104.64813 27119 ft 488 kts 201°
2026-04-25 13:50 31.40471 104.63228 26503 ft 483 kts 213°
2026-04-25 13:50 31.37767 104.60927 25901 ft 479 kts 226°
2026-04-25 13:50 31.35563 104.58037 25313 ft 475 kts 238°
2026-04-25 13:51 31.33810 104.54765 24732 ft 476 kts 242°
2026-04-25 13:51 31.32088 104.51447 24157 ft 478 kts 241°
2026-04-25 13:51 31.30351 104.48124 23601 ft 480 kts 241°
2026-04-25 13:51 31.28602 104.44800 22971 ft 478 kts 240°
2026-04-25 13:52 31.26861 104.41509 22330 ft 474 kts 240°
2026-04-25 13:52 31.25146 104.38240 21683 ft 470 kts 242°
2026-04-25 13:52 31.23659 104.34863 21070 ft 465 kts 245°
2026-04-25 13:52 31.22221 104.31493 20461 ft 462 kts 245°
2026-04-25 13:53 31.20793 104.28146 19903 ft 458 kts 245°
2026-04-25 13:53 31.19373 104.24824 19649 ft 457 kts 244°
2026-04-25 13:53 31.17953 104.21508 19607 ft 456 kts 244°
2026-04-25 13:53 31.16530 104.18187 19455 ft 458 kts 244°
2026-04-25 13:54 31.15102 104.14873 19099 ft 456 kts 244°
2026-04-25 13:54 31.13686 104.11594 18649 ft 448 kts 244°
2026-04-25 13:54 31.12296 104.08378 18187 ft 439 kts 244°
2026-04-25 13:54 31.10939 104.05235 17705 ft 429 kts 244°
2026-04-25 13:55 31.09613 104.02154 17199 ft 421 kts 243°
2026-04-25 13:55 31.08311 103.99132 16684 ft 413 kts 243°
2026-04-25 13:55 31.07028 103.96171 16195 ft 405 kts 243°
2026-04-25 13:55 31.05739 103.93279 15713 ft 398 kts 239°
2026-04-25 13:56 31.04198 103.90632 15261 ft 391 kts 231°
2026-04-25 13:56 31.02378 103.88314 14788 ft 385 kts 222°
2026-04-25 13:56 31.00317 103.86354 14331 ft 379 kts 214°
2026-04-25 13:56 30.98082 103.84761 13854 ft 374 kts 207°
2026-04-25 13:57 30.95723 103.83537 13354 ft 369 kts 202°
2026-04-25 13:57 30.94915 103.83160 13189 ft 368 kts 202°
2026-04-25 13:57 30.91002 103.81333 12354 ft 361 kts 202°
2026-04-25 13:57 30.88682 103.80249 11872 ft 357 kts 202°
2026-04-25 13:58 30.86406 103.79220 11693 ft 344 kts 197°
2026-04-25 13:58 30.84105 103.78801 11708 ft 327 kts 181°
2026-04-25 13:58 30.81914 103.79165 11711 ft 312 kts 164°
2026-04-25 13:58 30.79985 103.80202 11712 ft 303 kts 148°
2026-04-25 13:59 30.78393 103.81791 11669 ft 304 kts 133°
2026-04-25 13:59 30.77218 103.83824 11418 ft 304 kts 116°
2026-04-25 13:59 30.76595 103.86168 11176 ft 305 kts 98°
2026-04-25 13:59 30.76720 103.88620 10939 ft 306 kts 75°
2026-04-25 14:00 30.77681 103.90814 10710 ft 307 kts 49°
2026-04-25 14:00 30.79343 103.92333 10477 ft 305 kts 24°
2026-04-25 14:00 30.81305 103.93274 10245 ft 305 kts 20°
2026-04-25 14:00 30.83256 103.94176 10011 ft 299 kts 20°
2026-04-25 14:01 30.85167 103.95057 9776 ft 292 kts 20°
2026-04-25 14:01 30.87033 103.95924 9519 ft 286 kts 21°
2026-04-25 14:01 30.88857 103.96778 9266 ft 280 kts 21°
2026-04-25 14:01 30.90608 103.97711 8997 ft 274 kts 34°
2026-04-25 14:02 30.91872 103.99305 8764 ft 266 kts 63°
2026-04-25 14:02 30.92311 104.01328 8536 ft 255 kts 93°
2026-04-25 14:02 30.91988 104.03283 8282 ft 241 kts 112°
2026-04-25 14:02 30.91768 104.03897 8198 ft 237 kts 118°
2026-04-25 14:03 30.90106 104.06306 7628 ft 225 kts 144°
2026-04-25 14:03 30.88791 104.07187 7286 ft 212 kts 160°
2026-04-25 14:03 30.87412 104.07617 6932 ft 202 kts 174°
2026-04-25 14:03 30.86024 104.07629 6572 ft 198 kts 188°
2026-04-25 14:04 30.84698 104.07244 6225 ft 196 kts 202°
2026-04-25 14:04 30.83436 104.06652 5916 ft 194 kts 202°
2026-04-25 14:04 30.82187 104.06067 5923 ft 193 kts 202°
2026-04-25 14:04 30.80931 104.05479 5891 ft 195 kts 202°
2026-04-25 14:05 30.79670 104.04889 5712 ft 195 kts 202°
2026-04-25 14:05 30.78415 104.04301 5486 ft 194 kts 202°
2026-04-25 14:05 30.77169 104.03718 5241 ft 192 kts 201°
2026-04-25 14:05 30.75931 104.03140 5001 ft 191 kts 201°
2026-04-25 14:06 30.74698 104.02563 4757 ft 191 kts 201°
2026-04-25 14:06 30.73467 104.01987 4512 ft 191 kts 201°
2026-04-25 14:06 30.72238 104.01413 4261 ft 190 kts 201°
2026-04-25 14:06 30.71012 104.00840 4023 ft 188 kts 201°
2026-04-25 14:07 30.69856 104.00299 3786 ft 172 kts 200°
2026-04-25 14:07 30.68803 103.99808 3578 ft 156 kts 200°
2026-04-25 14:07 30.67815 103.99346 3388 ft 150 kts 199°
2026-04-25 14:07 30.66853 103.98898 3196 ft 148 kts 199°
2026-04-25 14:08 30.65900 103.98453 3018 ft 148 kts 199°
2026-04-25 14:08 30.65268 103.98158 2892 ft 148 kts 199°
2026-04-25 14:08 30.64313 103.97713 2709 ft 148 kts 199°
2026-04-25 14:08 30.63359 103.97268 2516 ft 148 kts 200°
2026-04-25 14:09 30.62398 103.96820 2323 ft 149 kts 201°
2026-04-25 14:09 30.61434 103.96371 2119 ft 149 kts 202°
2026-04-25 14:09 30.60467 103.95919 1906 ft 150 kts 202°
2026-04-25 14:09 30.59826 103.95621 1789 ft 150 kts 202°
2026-04-25 14:10 30.58570 103.95036 1647 ft 124 kts 201°
2026-04-25 14:10 30.57959 103.94751 1648 ft 69 kts 202°
2026-04-25 14:10 30.57690 103.94633 1647 ft 22 kts 195°
2026-04-25 14:10 30.57545 103.94602 1646 ft 21 kts 185°
2026-04-25 14:11 30.57411 103.94620 1647 ft 18 kts 172°
2026-04-25 14:11 30.57339 103.94657 1647 ft 10 kts 129°
2026-04-25 14:11 30.57310 103.94723 1647 ft 8 kts 107°
2026-04-25 14:11 30.57349 103.94775 1647 ft 11 kts 26°
2026-04-25 14:12 30.57437 103.94817 1647 ft 16 kts 22°
2026-04-25 14:12 30.57546 103.94868 1647 ft 17 kts 22°
2026-04-25 14:12 30.57652 103.94918 1647 ft 16 kts 19°
2026-04-25 14:12 30.57752 103.94965 1647 ft 15 kts 22°
2026-04-25 14:13 30.57847 103.95009 1647 ft 14 kts 22°
2026-04-25 14:13 30.57906 103.95077 1647 ft 12 kts 100°
2026-04-25 14:13 30.57895 103.95171 1647 ft 11 kts 105°
2026-04-25 14:13 30.57867 103.95250 1647 ft 9 kts 112°
2026-04-25 14:14 30.57854 103.95308 1647 ft 6 kts 83°
2026-04-25 14:14 30.57872 103.95336 1647 ft 3 kts 43°
2026-04-25 14:14 30.57883 103.95345 1647 ft 3 kts 32°
2026-04-25 14:14 30.57889 103.95349 1647 ft 0 kts 31°